When you browse on this site, cookies collect data to enhance your experience and personalize the content and advertising you see.
Visit our Privacy Policy to learn more. By continuing to use the site, you agree to this use of cookies and data.
EN

Hourly Weather Dobeln

Today, 7 July, Tuesday

Time Temperature Precipitation Wind Pressure Humidity
00:00 +10°C° 0 mm 4 mps 742 mmHg 88%
01:00 +10°C° 0 mm 3 mps 742 mmHg 91%
02:00 +9°C° 0 mm 3 mps 743 mmHg 92%
03:00 +9°C° 0 mm 3 mps 743 mmHg 94%
04:00 +8°C° 0 mm 3 mps 743 mmHg 95%
05:00 +10°C° 0 mm 4 mps 743 mmHg 92%
06:00 +11°C° 0 mm 4 mps 743 mmHg 88%
07:00 +12°C° 0 mm 4 mps 744 mmHg 84%
08:00 +13°C° 0.2 mm 4 mps 744 mmHg 79%
09:00 +14°C° 0.2 mm 4 mps 743 mmHg 73%
10:00 +15°C° 0.2 mm 4 mps 743 mmHg 68%
11:00 +17°C° 0.1 mm 4 mps 743 mmHg 64%
12:00 +17°C° 0.1 mm 5 mps 743 mmHg 60%
13:00 +19°C° 0.1 mm 5 mps 743 mmHg 56%
14:00 +19°C° 0 mm 4 mps 742 mmHg 55%
15:00 +19°C° 0 mm 4 mps 742 mmHg 55%
16:00 +19°C° 0 mm 4 mps 742 mmHg 54%
17:00 +19°C° 0 mm 3 mps 742 mmHg 59%
18:00 +18°C° 0 mm 2 mps 741 mmHg 64%
19:00 +17°C° 0 mm 2 mps 741 mmHg 69%
20:00 +16°C° 0 mm 2 mps 741 mmHg 70%
21:00 +14°C° 0 mm 3 mps 741 mmHg 71%
22:00 +13°C° 0 mm 3 mps 741 mmHg 72%
23:00 +13°C° 0 mm 3 mps 741 mmHg 75%

Tomorrow, 8 July, Wednesday

Time Temperature Precipitation Wind Pressure Humidity
00:00 +14°C° 0 mm 2 mps 741 mmHg 78%
01:00 +13°C° 0 mm 2 mps 741 mmHg 82%
02:00 +13°C° 0 mm 2 mps 741 mmHg 83%
03:00 +13°C° 0 mm 2 mps 741 mmHg 84%
04:00 +12°C° 0 mm 2 mps 741 mmHg 86%
05:00 +12°C° 0.1 mm 2 mps 741 mmHg 86%
06:00 +13°C° 0.1 mm 2 mps 741 mmHg 87%
07:00 +13°C° 0.1 mm 2 mps 740 mmHg 88%
08:00 +13°C° 0.3 mm 2 mps 740 mmHg 88%
09:00 +13°C° 0.3 mm 2 mps 741 mmHg 89%
10:00 +13°C° 0.3 mm 3 mps 741 mmHg 90%
11:00 +13°C° 0.8 mm 3 mps 740 mmHg 91%
12:00 +13°C° 0.8 mm 3 mps 740 mmHg 92%
13:00 +13°C° 0.8 mm 3 mps 740 mmHg 93%
14:00 +13°C° 0.7 mm 3 mps 740 mmHg 92%
15:00 +13°C° 0.7 mm 4 mps 740 mmHg 91%
16:00 +13°C° 0.7 mm 4 mps 741 mmHg 89%
17:00 +13°C° 0 mm 3 mps 741 mmHg 89%
18:00 +14°C° 0 mm 3 mps 741 mmHg 88%
19:00 +14°C° 0 mm 3 mps 741 mmHg 88%
20:00 +13°C° 0 mm 3 mps 741 mmHg 90%
21:00 +13°C° 0 mm 2 mps 742 mmHg 92%
22:00 +12°C° 0 mm 2 mps 742 mmHg 95%
23:00 +12°C° 0 mm 2 mps 742 mmHg 95%

Day after tomorrow, 9 July, Thursday

Time Temperature Precipitation Wind Pressure Humidity
00:00 +10°C° 0 mm 2 mps 742 mmHg 95%
01:00 +10°C° 0 mm 2 mps 742 mmHg 96%
02:00 +10°C° 0 mm 2 mps 742 mmHg 95%
03:00 +10°C° 0 mm 2 mps 742 mmHg 95%
04:00 +10°C° 0 mm 2 mps 742 mmHg 95%
05:00 +12°C° 0 mm 2 mps 742 mmHg 93%
06:00 +14°C° 0 mm 2 mps 742 mmHg 90%
07:00 +15°C° 0 mm 2 mps 743 mmHg 88%
08:00 +16°C° 0.1 mm 2 mps 743 mmHg 86%
09:00 +17°C° 0.1 mm 2 mps 743 mmHg 85%
10:00 +18°C° 0.1 mm 2 mps 743 mmHg 83%
11:00 +19°C° 0.1 mm 2 mps 743 mmHg 80%
12:00 +20°C° 0.1 mm 2 mps 742 mmHg 77%
13:00 +20°C° 0.1 mm 2 mps 742 mmHg 73%
14:00 +21°C° 0.1 mm 2 mps 742 mmHg 72%
15:00 +23°C° 0.1 mm 2 mps 741 mmHg 70%
16:00 +23°C° 0.1 mm 2 mps 741 mmHg 69%
17:00 +23°C° 0.1 mm 1 mps 741 mmHg 73%
18:00 +22°C° 0.1 mm 1 mps 740 mmHg 77%
19:00 +22°C° 0.1 mm 1 mps 740 mmHg 81%
20:00 +21°C° 0 mm 1 mps 740 mmHg 84%
21:00 +19°C° 0 mm 2 mps 740 mmHg 86%
22:00 +18°C° 0 mm 2 mps 740 mmHg 89%
23:00 +18°C° 0.1 mm 3 mps 739 mmHg 89%

10 July, Friday

Time Temperature Precipitation Wind Pressure Humidity
00:00 +18°C° 0.1 mm 3 mps 739 mmHg 89%
01:00 +18°C° 0.1 mm 3 mps 738 mmHg 90%
02:00 +17°C° 0 mm 3 mps 738 mmHg 89%
03:00 +17°C° 0 mm 4 mps 737 mmHg 89%
04:00 +17°C° 0 mm 4 mps 737 mmHg 88%
05:00 +17°C° 0.1 mm 5 mps 736 mmHg 86%
06:00 +20°C° 0.1 mm 5 mps 736 mmHg 83%
07:00 +21°C° 0.1 mm 5 mps 736 mmHg 81%
08:00 +22°C° 0.5 mm 6 mps 736 mmHg 77%
09:00 +23°C° 0.5 mm 7 mps 735 mmHg 73%
10:00 +24°C° 0.5 mm 7 mps 735 mmHg 68%
11:00 +23°C° 1.5 mm 7 mps 735 mmHg 73%
12:00 +22°C° 1.5 mm 7 mps 736 mmHg 78%
13:00 +20°C° 1.5 mm 7 mps 736 mmHg 83%
14:00 +20°C° 0.2 mm 7 mps 736 mmHg 79%
15:00 +19°C° 0.2 mm 6 mps 737 mmHg 74%
16:00 +17°C° 0.2 mm 6 mps 738 mmHg 70%
17:00 +17°C° 0 mm 6 mps 738 mmHg 69%
18:00 +16°C° 0 mm 5 mps 738 mmHg 69%
19:00 +15°C° 0 mm 5 mps 739 mmHg 69%
20:00 +14°C° 0 mm 5 mps 740 mmHg 70%
21:00 +13°C° 0 mm 4 mps 741 mmHg 71%
22:00 +12°C° 0 mm 4 mps 742 mmHg 72%
23:00 +11°C° 0 mm 4 mps 742 mmHg 75%

11 July, Saturday

Time Temperature Precipitation Wind Pressure Humidity
00:00 +10°C° 0 mm 4 mps 742 mmHg 78%
01:00 +8°C° 0 mm 4 mps 743 mmHg 80%
02:00 +8°C° 0 mm 4 mps 743 mmHg 82%
03:00 +7°C° 0 mm 4 mps 743 mmHg 84%
04:00 +7°C° 0 mm 4 mps 744 mmHg 86%
05:00 +8°C° 0 mm 4 mps 744 mmHg 82%
06:00 +10°C° 0 mm 4 mps 744 mmHg 78%
07:00 +12°C° 0 mm 5 mps 744 mmHg 74%
08:00 +13°C° 0 mm 5 mps 744 mmHg 69%
09:00 +14°C° 0 mm 5 mps 744 mmHg 65%
10:00 +15°C° 0 mm 5 mps 744 mmHg 60%
11:00 +16°C° 0 mm 5 mps 744 mmHg 57%
12:00 +17°C° 0 mm 5 mps 744 mmHg 53%
13:00 +19°C° 0 mm 5 mps 744 mmHg 49%
14:00 +19°C° 0 mm 5 mps 744 mmHg 50%
15:00 +19°C° 0 mm 5 mps 744 mmHg 50%
16:00 +20°C° 0 mm 5 mps 744 mmHg 51%
17:00 +19°C° 0.1 mm 4 mps 744 mmHg 58%
18:00 +17°C° 0.1 mm 3 mps 744 mmHg 65%
19:00 +16°C° 0.1 mm 2 mps 744 mmHg 73%
20:00 +15°C° 0 mm 2 mps 744 mmHg 75%
21:00 +14°C° 0 mm 2 mps 745 mmHg 77%
22:00 +13°C° 0 mm 1 mps 745 mmHg 79%
23:00 +13°C° 0 mm 2 mps 745 mmHg 82%

12 July, Sunday

Time Temperature Precipitation Wind Pressure Humidity
00:00 +12°C° 0 mm 2 mps 746 mmHg 85%
01:00 +11°C° 0 mm 3 mps 746 mmHg 87%
02:00 +10°C° 0 mm 3 mps 746 mmHg 89%
03:00 +9°C° 0 mm 3 mps 746 mmHg 90%
04:00 +9°C° 0 mm 2 mps 746 mmHg 91%
05:00 +10°C° 0 mm 3 mps 747 mmHg 86%
06:00 +10°C° 0 mm 3 mps 747 mmHg 82%
07:00 +11°C° 0 mm 3 mps 748 mmHg 77%
08:00 +12°C° 0 mm 3 mps 748 mmHg 71%
09:00 +13°C° 0 mm 3 mps 748 mmHg 66%
10:00 +15°C° 0 mm 4 mps 748 mmHg 60%
11:00 +16°C° 0 mm 3 mps 748 mmHg 59%
12:00 +16°C° 0 mm 3 mps 748 mmHg 59%
13:00 +17°C° 0 mm 3 mps 748 mmHg 58%
14:00 +17°C° 0 mm 3 mps 748 mmHg 58%
15:00 +17°C° 0 mm 3 mps 748 mmHg 58%
16:00 +17°C° 0 mm 3 mps 748 mmHg 58%
17:00 +17°C° 0 mm 3 mps 748 mmHg 62%
18:00 +16°C° 0 mm 2 mps 748 mmHg 67%
19:00 +16°C° 0 mm 2 mps 748 mmHg 71%
20:00 +14°C° 0 mm 1 mps 748 mmHg 75%
21:00 +13°C° 0 mm 1 mps 748 mmHg 79%
22:00 +10°C° 0 mm 0 mps 748 mmHg 82%
23:00 +11°C° 0 mm 1 mps 748 mmHg 83%
Show more